N5BAB Weather Reports


Display with metric or nautical units.
time (UTC)temp
F
wind
direction
speed
MPH
gust
MPH
rain 1hr
in
rain 24hr
in
rain mn
in
humidity
%
barometer
mb
20260506143542 58 97 10.0 24.0 0.03 0.07 0.07 89 1013.0
20260506143050 59 69 11.0 27.0 0.03 0.07 0.07 89 1012.8
20260506142542 59 29 10.0 27.0 0.02 0.06 0.06 89 1012.8
20260506142042 59 45 11.0 25.0 0.02 0.06 0.06 89 1012.6
20260506141554 60 33 12.0 25.0 0.01 0.05 0.05 89 1012.4
20260506141044 60 53 14.0 26.0 0.01 0.05 0.05 88 1012.4
20260506140544 61 40 13.0 26.0 0.01 0.05 0.05 89 1012.3
20260506140052 62 30 10.0 21.0 0.01 0.05 0.05 89 1012.1
20260506135539 62 28 7.0 13.0 0.00 0.04 0.04 90 1012.0
20260506135041 62 41 5.0 10.0 0.00 0.04 0.04 90 1011.9
20260506134545 62 324 3.0 10.0 0.00 0.04 0.04 89 1011.8
20260506134043 62 294 3.0 9.0 0.00 0.04 0.04 89 1011.9
20260506133543 62 327 4.0 9.0 0.01 0.04 0.04 89 1011.8
20260506133049 62 296 3.0 8.0 0.03 0.04 0.04 89 1011.6
20260506132542 62 293 2.0 7.0 0.03 0.04 0.04 88 1011.6
20260506132042 62 307 3.0 5.0 0.03 0.04 0.04 88 1011.4
20260506131600 62 306 1.0 6.0 0.03 0.04 0.04 88 1011.4
20260506131042 62 11 2.0 6.0 0.03 0.04 0.04 88 1011.3
20260506130541 62 62 1.0 10.0 0.03 0.04 0.04 88 1011.1
20260506130112 63 41 1.0 10.0 0.03 0.04 0.04 88 1011.4
20260506125542 63 321 4.0 15.0 0.03 0.04 0.04 88 1011.3
20260506125042 63 9 5.0 15.0 0.03 0.04 0.04 87 1011.3
20260506124558 63 334 7.0 14.0 0.03 0.04 0.04 87 1011.3
20260506124042 63 359 4.0 11.0 0.03 0.04 0.04 87 1011.2
20260506123542 63 7 3.0 11.0 0.02 0.03 0.03 87 1011.0
20260506123049 63 297 4.0 11.0 0.00 0.01 0.01 87 1011.0
20260506122544 63 297 6.0 11.0 0.00 0.01 0.01 87 1010.8
20260506122041 64 309 4.0 11.0 0.00 0.01 0.01 88 1010.7
20260506121547 64 302 3.0 10.0 0.00 0.01 0.01 88 1010.8
20260506121042 64 309 1.0 10.0 0.00 0.01 0.01 88 1010.8
20260506120545 64 325 5.0 10.0 0.00 0.01 0.01 88 1010.7
20260506120100 64 12 1.0 3.0 0.00 0.01 0.01 88 1010.3
20260506115543 64 51 1.0 3.0 0.00 0.01 0.01 88 1010.2
20260506115042 64 41 1.0 3.0 0.00 0.01 0.01 87 1010.1
20260506114551 64 58 1.0 4.0 0.00 0.01 0.01 87 1010.0
20260506114042 64 319 1.0 4.0 0.00 0.01 0.01 87 1010.0
20260506113542 64 26 1.0 3.0 0.00 0.01 0.01 87 1009.7
20260506113055 64 28 1.0 3.0 0.00 0.01 0.01 87 1009.6
20260506112543 64 83 1.0 3.0 0.00 0.01 0.01 87 1009.5
20260506112043 64 0 0.0 2.0 0.00 0.01 0.01 87 1009.5
20260506111549 64 240 0.0 3.0 0.00 0.01 0.01 87 1009.4
20260506111042 64 83 0.0 3.0 0.00 0.01 0.01 87 1009.3
20260506110542 64 359 2.0 3.0 0.00 0.01 0.01 87 1009.3
20260506110055 64 83 1.0 2.0 0.00 0.01 0.01 87 1009.3
20260506105542 64 83 1.0 2.0 0.00 0.01 0.01 86 1009.1
20260506105041 64 0 1.0 2.0 0.00 0.01 0.01 86 1009.1
20260506104552 64 0 0.0 2.0 0.00 0.01 0.01 86 1009.1
20260506104042 64 0 0.0 3.0 0.00 0.01 0.01 86 1009.0
20260506103542 64 359 0.0 3.0 0.00 0.01 0.01 86 1009.1
20260506103057 64 306 1.0 4.0 0.00 0.01 0.01 86 1009.1
20260506102543 64 299 0.0 4.0 0.00 0.01 0.01 85 1009.0
20260506102042 64 315 1.0 2.0 0.00 0.01 0.01 85 1009.0
20260506101600 64 0 0.0 3.0 0.00 0.01 0.01 85 1008.9
20260506101042 64 0 0.0 4.0 0.00 0.01 0.01 85 1008.8
20260506100542 64 41 1.0 6.0 0.00 0.01 0.01 85 1008.8
20260506100109 64 276 2.0 6.0 0.00 0.01 0.01 85 1008.9
20260506095542 64 288 2.0 9.0 0.00 0.01 0.01 85 1008.7
20260506095042 64 299 4.0 9.0 0.00 0.01 0.01 84 1008.8
20260506094555 64 313 5.0 9.0 0.00 0.01 0.01 84 1008.8
20260506094042 65 276 3.0 8.0 0.00 0.01 0.01 84 1008.7
20260506093542 65 263 4.0 11.0 0.00 0.01 0.01 84 1008.6
20260506093052 65 282 4.0 11.0 0.00 0.01 0.01 83 1008.5
20260506092542 65 278 5.0 12.0 0.00 0.01 0.01 83 1008.5
20260506092043 65 332 7.0 14.0 0.00 0.01 0.01 82 1008.5
20260506091605 66 299 8.0 16.0 0.00 0.01 0.01 82 1008.3
20260506091043 66 292 10.0 16.0 0.01 0.01 0.01 82 1008.2
20260506090543 67 311 8.0 16.0 0.01 0.01 0.01 82 1008.2
20260506090051 67 302 8.0 16.0 0.01 0.01 0.01 82 1008.1
20260506085542 68 299 7.0 14.0 0.01 0.01 0.01 82 1008.0
20260506085042 69 269 7.0 14.0 0.01 0.01 0.01 82 1007.9
20260506084620 69 41 7.0 14.0 0.01 0.01 0.01 82 1007.9
20260506084043 70 289 8.0 14.0 0.01 0.01 0.01 82 1007.9
20260506083543 70 305 5.0 13.0 0.01 0.01 0.01 82 1007.8
20260506083051 71 324 8.0 17.0 0.01 0.01 0.01 83 1007.8
20260506082540 72 288 8.0 19.0 0.01 0.01 0.01 83 1007.7
20260506082042 72 274 9.0 29.0 0.01 0.01 0.01 83 1007.4
20260506081602 73 284 12.0 29.0 0.01 0.01 0.01 85 1007.3
20260506081042 75 281 8.0 20.0 0.00 0.00 0.00 89 1007.3
20260506080542 75 207 5.0 15.0 0.00 0.00 0.00 89 1007.1
20260506073057 75 204 9.0 21.0 0.00 0.00 0.00 89 1006.7
20260506072543 74 229 6.0 19.0 0.00 0.00 0.00 89 1006.6
20260506072044 74 216 7.0 19.0 0.00 0.00 0.00 89 1006.6
20260506071553 74 163 11.0 21.0 0.00 0.00 0.00 89 1006.7
20260506071042 74 359 6.0 21.0 0.00 0.00 0.00 89 1006.9
20260506070542 74 184 10.0 22.0 0.00 0.00 0.00 89 1006.6
20260506062043 75 159 8.0 19.0 0.00 0.00 0.00 88 1006.8
20260506061554 75 206 9.0 19.0 0.00 0.00 0.00 88 1006.9
20260506061043 75 202 7.0 16.0 0.00 0.00 0.00 87 1006.9
20260506060542 75 161 8.0 17.0 0.00 0.00 0.00 87 1007.0
20260506051042 75 199 7.0 15.0 0.00 0.00 0.00 86 1007.2
20260506050540 75 192 6.0 14.0 0.00 0.00 0.00 86 1007.3
20260506045042 75 202 7.0 15.0 0.00 0.00 0.00 85 1006.9
20260506044700 75 176 6.0 14.0 0.00 0.00 0.00 85 1006.9
20260506044042 75 186 7.0 14.0 0.00 0.00 0.00 85 1006.8
20260506043542 75 213 6.0 13.0 0.00 0.00 0.00 85 1006.8
20260506043107 75 193 6.0 14.0 0.00 0.00 0.00 85 1007.0
20260506042542 75 209 6.0 14.0 0.00 0.00 0.00 85 1006.9
20260506042041 76 195 6.0 13.0 0.00 0.00 0.00 85 1006.9
20260506041601 76 190 6.0 13.0 0.00 0.00 0.00 85 1006.8
20260506041042 76 143 6.0 13.0 0.00 0.00 0.00 84 1007.0
20260506040545 76 178 5.0 14.0 0.00 0.00 0.00 84 1006.9
20260506040052 76 218 4.0 14.0 0.00 0.00 0.00 84 1006.8
20260506035543 76 197 7.0 14.0 0.00 0.00 0.00 84 1006.7
20260506035043 76 215 6.0 14.0 0.00 0.00 0.00 84 1006.5
20260506034624 76 201 6.0 13.0 0.00 0.00 0.00 84 1006.3
20260506034042 76 198 8.0 13.0 0.00 0.00 0.00 84 1006.2
20260506033543 76 176 5.0 18.0 0.00 0.00 0.00 84 1005.8
20260506033056 76 173 6.0 19.0 0.00 0.00 0.00 84 1006.2
20260506032540 76 159 6.0 19.0 0.00 0.00 0.00 83 1006.1
20260506032040 76 197 7.0 12.0 0.00 0.00 0.00 83 1005.9
20260506031545 76 186 5.0 11.0 0.00 0.00 0.00 83 1006.3
20260506031043 77 198 6.0 10.0 0.00 0.00 0.00 83 1006.3
20260506030544 77 155 5.0 11.0 0.00 0.00 0.00 83 1006.2
20260506030052 77 255 5.0 11.0 0.00 0.00 0.00 83 1006.4
20260506025543 77 168 6.0 11.0 0.00 0.00 0.00 83 1006.1
20260506025045 77 165 4.0 11.0 0.00 0.00 0.00 83 1005.8
20260506024551 77 137 5.0 11.0 0.00 0.00 0.00 83 1005.7
20260506024043 77 163 4.0 10.0 0.00 0.00 0.00 82 1005.6
20260506023543 77 154 4.0 9.0 0.00 0.00 0.00 82 1005.6
20260506023107 77 168 4.0 11.0 0.00 0.00 0.00 82 1005.6
20260506022542 77 159 5.0 11.0 0.00 0.00 0.00 82 1005.6
20260506022043 77 129 4.0 9.0 0.00 0.00 0.00 82 1005.7
20260506021548 77 146 4.0 9.0 0.00 0.00 0.00 82 1005.9
20260506021043 77 168 3.0 9.0 0.00 0.00 0.00 82 1005.9
20260506020542 77 146 4.0 9.0 0.00 0.00 0.00 82 1005.8
20260506020047 77 149 4.0 9.0 0.00 0.00 0.00 82 1005.7
20260506015544 77 146 5.0 9.0 0.00 0.00 0.00 82 1005.6
20260506015045 77 192 4.0 8.0 0.00 0.00 0.00 82 1005.7
20260506014553 77 157 3.0 7.0 0.00 0.00 0.00 81 1005.7
20260506014043 78 140 3.0 7.0 0.00 0.00 0.00 81 1005.8
20260506013542 78 150 3.0 7.0 0.00 0.00 0.00 81 1005.6
20260506013053 78 168 3.0 7.0 0.00 0.00 0.00 80 1005.5
20260506012543 78 205 3.0 7.0 0.00 0.00 0.00 80 1005.7
20260506012045 78 132 2.0 7.0 0.00 0.00 0.00 79 1005.5
20260506011549 78 183 2.0 5.0 0.00 0.00 0.00 79 1005.5
20260506011043 79 202 2.0 5.0 0.00 0.00 0.00 79 1005.5
20260506010543 79 199 3.0 5.0 0.00 0.00 0.00 78 1005.5
20260506010100 79 186 1.0 5.0 0.00 0.00 0.00 78 1005.2
20260506005543 79 205 2.0 5.0 0.00 0.00 0.00 78 1005.2
20260506005042 79 229 2.0 5.0 0.00 0.00 0.00 78 1005.2
20260506004603 79 211 3.0 6.0 0.00 0.00 0.00 77 1005.1
20260506004043 79 180 2.0 10.0 0.00 0.00 0.00 77 1005.0
20260506003543 80 168 4.0 10.0 0.00 0.00 0.00 76 1004.8
20260506003102 80 180 3.0 7.0 0.00 0.00 0.00 76 1005.0
20260506002542 80 199 4.0 7.0 0.00 0.00 0.00 75 1005.1
20260506002042 80 217 3.0 7.0 0.00 0.00 0.00 75 1005.1
20260506001557 81 211 1.0 7.0 0.00 0.00 0.00 74 1005.1
20260506001043 81 229 4.0 9.0 0.00 0.00 0.00 74 1005.2
20260506000538 81 207 4.0 9.0 0.00 0.00 0.00 73 1005.2
20260506000053 81 215 2.0 13.0 0.00 0.00 0.00 73 1005.1
20260505235545 82 211 5.0 14.0 0.00 0.00 0.00 72 1004.9
20260505235041 82 211 5.0 14.0 0.00 0.00 0.00 72 1004.7
20260505234614 82 208 7.0 12.0 0.00 0.00 0.00 71 1004.6
20260505234042 82 202 5.0 14.0 0.00 0.00 0.00 71 1004.7
20260505233541 83 182 6.0 14.0 0.00 0.00 0.00 71 1004.5
20260505233051 83 140 6.0 13.0 0.00 0.00 0.00 70 1004.3
20260505232541 83 200 8.0 17.0 0.00 0.00 0.00 69 1004.4
20260505232043 84 223 5.0 17.0 0.00 0.00 0.00 68 1004.6
20260505231550 85 211 5.0 16.0 0.00 0.00 0.00 68 1004.6
20260505231040 84 219 8.0 16.0 0.00 0.00 0.00 67 1004.7
20260505230541 84 219 7.0 16.0 0.00 0.00 0.00 68 1004.8
20260505230054 84 192 8.0 18.0 0.00 0.00 0.00 68 1004.6
20260505225539 84 219 9.0 18.0 0.00 0.00 0.00 67 1004.8
20260505225039 84 168 8.0 15.0 0.00 0.00 0.00 68 1004.9
20260505224549 84 149 5.0 14.0 0.00 0.00 0.00 69 1004.8
20260505224038 84 152 4.0 15.0 0.00 0.00 0.00 70 1004.8
20260505223541 84 255 8.0 15.0 0.00 0.00 0.00 68 1004.8
20260505223052 84 186 6.0 22.0 0.00 0.00 0.00 66 1004.7
20260505222538 85 247 8.0 24.0 0.00 0.00 0.00 67 1004.5
20260505222038 84 238 9.0 24.0 0.00 0.00 0.00 66 1004.7
20260505221549 84 215 10.0 23.0 0.00 0.00 0.00 69 1004.9
20260505221040 84 224 7.0 16.0 0.00 0.00 0.00 68 1004.8
20260505220539 84 185 5.0 17.0 0.00 0.00 0.00 69 1004.8
20260505215539 84 195 9.0 17.0 0.00 0.00 0.00 67 1004.7
20260505215042 84 211 8.0 17.0 0.00 0.00 0.00 66 1004.8
20260505214554 85 204 7.0 15.0 0.00 0.00 0.00 68 1004.7
20260505214040 85 203 7.0 18.0 0.00 0.00 0.00 69 1004.9
20260505213541 84 228 8.0 18.0 0.00 0.00 0.00 68 1004.8
20260505213100 84 215 9.0 24.0 0.00 0.00 0.00 66 1004.8
20260505212538 84 211 11.0 25.0 0.00 0.00 0.00 65 1004.7
20260505212040 85 177 9.0 25.0 0.00 0.00 0.00 65 1004.9
20260505211554 86 191 9.0 22.0 0.00 0.00 0.00 65 1004.9
20260505211039 86 209 11.0 22.0 0.00 0.00 0.00 65 1004.9
20260505210538 86 226 12.0 22.0 0.00 0.00 0.00 63 1004.8
20260505210049 86 204 13.0 22.0 0.00 0.00 0.00 66 1004.8
20260505205543 87 222 10.0 21.0 0.00 0.00 0.00 64 1004.9
20260505205043 86 175 9.0 25.0 0.00 0.00 0.00 65 1004.9
20260505204550 86 222 11.0 25.0 0.00 0.00 0.00 64 1004.9
20260505204043 86 271 11.0 25.0 0.00 0.00 0.00 65 1005.0
20260505203543 86 173 7.0 18.0 0.00 0.00 0.00 67 1005.0
20260505203050 85 149 6.0 15.0 0.00 0.00 0.00 68 1004.9
20260505202543 85 229 7.0 14.0 0.00 0.00 0.00 65 1005.3
20260505202043 85 172 6.0 15.0 0.00 0.00 0.00 69 1005.2
20260505201552 85 159 7.0 17.0 0.00 0.00 0.00 70 1005.2
20260505201043 85 211 9.0 17.0 0.00 0.00 0.00 68 1005.3
20260505200544 85 216 9.0 16.0 0.00 0.00 0.00 69 1005.4
20260505200049 83 201 9.0 16.0 0.00 0.00 0.00 69 1005.5
20260505195543 82 223 8.0 19.0 0.00 0.00 0.00 71 1005.7
20260505195043 81 204 10.0 19.0 0.00 0.00 0.00 72 1005.7
20260505194554 81 233 9.0 16.0 0.00 0.00 0.00 74 1005.7
20260505194046 81 208 8.0 18.0 0.00 0.00 0.00 71 1005.8
20260505193544 81 205 10.0 22.0 0.00 0.00 0.00 72 1005.7
20260505193056 81 244 11.0 23.0 0.00 0.00 0.00 72 1005.6
20260505192543 80 204 12.0 23.0 0.00 0.00 0.00 72 1005.6
20260505192043 81 193 11.0 21.0 0.00 0.00 0.00 72 1005.6
20260505191556 80 172 9.0 25.0 0.00 0.00 0.00 72 1005.5
20260505191043 80 172 11.0 25.0 0.00 0.00 0.00 72 1005.5
20260505190543 81 216 11.0 24.0 0.00 0.00 0.00 71 1005.5
20260505190056 81 143 10.0 19.0 0.00 0.00 0.00 73 1005.0
20260505185543 81 202 10.0 20.0 0.00 0.00 0.00 73 1004.9
20260505185043 81 228 10.0 20.0 0.00 0.00 0.00 74 1005.1
20260505184558 79 215 8.0 19.0 0.00 0.00 0.00 78 1004.9
20260505184043 78 168 10.0 19.0 0.00 0.00 0.00 77 1004.8
20260505183542 78 197 9.0 25.0 0.00 0.00 0.00 77 1005.3
20260505183051 78 197 12.0 25.0 0.00 0.00 0.00 77 1005.4
20260505182543 77 225 10.0 20.0 0.00 0.00 0.00 77 1006.1
20260505182044 77 186 6.0 14.0 0.00 0.00 0.00 77 1006.5
20260505181551 77 146 7.0 16.0 0.00 0.00 0.00 78 1006.9
20260505181043 77 211 9.0 18.0 0.00 0.00 0.00 77 1006.7
20260505180543 77 205 6.0 19.0 0.00 0.00 0.00 79 1006.5
20260505180057 76 213 8.0 22.0 0.00 0.00 0.00 78 1006.5
20260505175543 76 213 11.0 24.0 0.00 0.00 0.00 79 1006.7
20260505175047 76 230 11.0 24.0 0.00 0.00 0.00 78 1006.4
20260505174610 76 218 11.0 18.0 0.00 0.00 0.00 79 1006.2
20260505174044 75 207 9.0 18.0 0.00 0.00 0.00 81 1006.1
20260505173541 75 200 8.0 20.0 0.00 0.00 0.00 80 1006.4
20260505173053 75 209 9.0 20.0 0.00 0.00 0.00 81 1006.2
20260505172542 75 198 6.0 18.0 0.00 0.00 0.00 81 1006.1
20260505172042 75 202 10.0 18.0 0.00 0.00 0.00 81 1006.1
20260505171550 74 163 8.0 19.0 0.00 0.00 0.00 82 1006.2
20260505171044 75 211 9.0 19.0 0.00 0.00 0.00 81 1006.4
20260505170541 75 209 8.0 18.0 0.00 0.00 0.00 82 1006.5
20260505170122 75 153 8.0 24.0 0.00 0.00 0.00 83 1006.4
20260505165541 74 209 11.0 24.0 0.00 0.00 0.00 84 1006.5
20260505165041 74 203 7.0 21.0 0.00 0.00 0.00 83 1006.5
20260505164552 74 165 9.0 22.0 0.00 0.00 0.00 82 1006.6
20260505164043 74 160 11.0 24.0 0.00 0.00 0.00 82 1006.5
20260505163543 74 226 11.0 24.0 0.00 0.00 0.00 84 1006.6
20260505163050 73 209 8.0 21.0 0.00 0.00 0.00 86 1006.5
20260505162543 72 215 10.0 19.0 0.00 0.00 0.00 86 1006.5
20260505162043 72 180 9.0 20.0 0.00 0.00 0.00 87 1006.6
20260505161557 71 178 8.0 20.0 0.00 0.00 0.00 89 1006.6
20260505161043 71 179 10.0 19.0 0.00 0.00 0.00 89 1006.4
20260505160547 70 150 7.0 16.0 0.00 0.00 0.00 89 1006.7
20260505153057 69 155 5.0 21.0 0.00 0.00 0.00 92 1006.9
20260505152543 69 159 5.0 21.0 0.00 0.00 0.00 92 1006.8
20260505152043 69 197 6.0 15.0 0.00 0.00 0.00 92 1006.9
20260505151552 69 159 5.0 15.0 0.00 0.00 0.00 92 1007.0
20260505151043 68 168 5.0 15.0 0.00 0.00 0.00 91 1007.1
20260505150543 68 172 5.0 15.0 0.00 0.00 0.00 91 1007.0